Location: Ferintosh
(52.7647°N, 112.9692°W)
Time: 18:34:30
(UTC+00:00)

Explorer 7 - Pass Details

Date: 27 May 2024
Orbit: 466 x 622 km, 50.3° (Epoch: 15 June)

Event Time Altitude Azimuth Distance (km) Brightness Sun altitude
Rises 10:41:37 0° 276° (W) 2,643 9.9 -4.9°
Reaches altitude 10° 10:44:40 10° 251° (WSW) 1,788 8.9 -4.6°
Maximum altitude 10:46:48 14° 219° (SW) 1,573 8.5 -4.3°
Drops below altitude 10° 10:48:59 10° 187° (S) 1,836 9.0 -4.1°
Sets 10:52:12 0° 162° (SSE) 2,767 10.1 -3.8°
